Regional Weather Roundup
Issued by NWS Sioux Falls, SD

Home | Current Version | Previous Version | Text Only | Print | Product List | Glossary On
Versions: 1 2 3 4 5 6 7 8 9 10 11 12 13 14 15 16 17 18 19 20 21 22 23 24 25 26 27 28 29 30 31 32 33 34 35 36 37 38 39 40 41 42 43 44 45 46 47 48 49 50
000
ASUS43 KFSD 230010
RWRFSD

WEATHER ROUNDUP FOR SE SOUTH DAKOTA/SW MINNESOTA/NW IOWA
NATIONAL WEATHER SERVICE SIOUX FALLS SD
600 PM CST SUN JAN 22 2017

NOTE: "FAIR" INDICATES FEW OR NO CLOUDS BELOW 12,000 FEET WITH NO
SIGNIFICANT WEATHER AND OR OBSTRUCTIONS TO VISIBILITY.


SDZ038>040-050-052>070-230100-
SOUTHEAST SOUTH DAKOTA

CITY           SKY/WX    TMP DP  RH WIND       PRES   REMARKS
BROOKINGS      CLOUDY    29  27  92 NW15      29.81R WCI  18
CHAMBERLAIN    CLOUDY    31  28  88 NW14      29.89R WCI  21
6HR MIN TEMP:  31; 6HR MAX TEMP:  34;

HURON          CLOUDY    29  27  92 NW13      29.86R WCI  19
6HR MIN TEMP:  26; 6HR MAX TEMP:  30;

MADISON        CLOUDY    28  28 100 NW17        N/A  WCI  16
MITCHELL       CLOUDY    31  27  85 W13       29.88R WCI  21
6HR MIN TEMP:  27; 6HR MAX TEMP:  32;

SIOUX FALLS    CLOUDY    30  29  96 NW10      29.84R FOG     WCI  21
6HR MIN TEMP:  29; 6HR MAX TEMP:  33;

WINNER         FAIR      28  23  81 N8        29.89R WCI  20
YANKTON        CLEAR     28  25  86 NW7       29.87R WCI  21
$$

MNZ071-072-080-081-089-090-097-098-230100-
SOUTHWEST MINNESOTA

CITY           SKY/WX    TMP DP  RH WIND       PRES   REMARKS
FAIRMONT       FOG       34  33  96 NW10      29.79R VSB 1   WCI  26
JACKSON        CLOUDY    32  32 100 W9        29.79R FOG     WCI  24
LUVERNE        CLOUDY    30  27  86 NW13      29.83R WCI  20
MARSHALL       CLOUDY    32  29  88 NW13      29.81R WCI  22
6HR MIN TEMP:  31; 6HR MAX TEMP:  36;

MONTEVIDEO     CLOUDY    32  32 100 NW5       29.81S FOG     WCI  27
PIPESTONE      CLOUDY    30  28  93 NW13      29.80R WCI  20
REDWOOD FALLS  CLOUDY    33  29  85 NW8       29.79S FOG     WCI  26
TRACY          CLOUDY    32  31  96 NW12      29.81R FOG     WCI  23
WINDOM         CLOUDY    32  32 100 NW12      29.79R FOG     WCI  23
WORTHINGTON    CLOUDY    29  29 100 NW15      29.80R FOG     WCI  18
$$

IAZ001>003-012>014-020>022-031-032-NEZ013-014-SDZ071-230100-
NORTHWEST IOWA

CITY           SKY/WX    TMP DP  RH WIND       PRES   REMARKS
CHEROKEE       CLOUDY    33  32  96 W9        29.83R WCI  25
DENISON        CLOUDY    34  34 100 NW10      29.81R WCI  26
ESTHERVILLE    CLOUDY    34  34 100 NW10      29.78R WCI  26
LE MARS        CLOUDY    30  28  93 NW16G24   29.86R WCI  19
ORANGE CITY    CLOUDY    30  28  93 NW16      29.83R FOG     WCI  19
SHELDON        CLOUDY    30  30 100 NW13G22   29.81R FOG     WCI  20
SIOUX CITY     MOCLDY    34  31  88 NW3       29.84R
6HR MIN TEMP:  33; 6HR MAX TEMP:  38;

SPENCER          N/A    N/A N/A N/A MISG      29.81R
STORM LAKE     CLOUDY    32  32 100 NW13      29.80R FOG     WCI  22
$$

ABBREVIATIONS USED IN REMARKS
   TC - TEMPERATURE IN CELSIUS
  WCI - WIND CHILL INDEX
   HX - HEAT INDEX
  VSB - VISIBILITY




USA.gov is the U.S. government's official web portal to all federal, state and local government web resources and services.